[[{"header":{"parameterUnit":"m.s-1","parameterCategory":1,"la1":30.2991,"la2":30.254,"lo1":-89.0895,"lo2":-89.0444,"dy":0.0017,"dx":0.0017,"nx":28,"ny":28,"refTime":"2024-03-14T09:00:00:Z","depth":0,"parameterNumber":2,"parameterNumberName":"U-component_of_WINDS"},"data":[0,0,0,0,0,0,0,0,0,0,0,0,0,0,0,0,0,0,0,0,0,0,0,0,0,0,0,0,0,0,0,0,0,0,0,0,0,0,0,0,0,0,0,0,0,0,0,0,0,0,0,0,0,0,0,0,0,0,-6.2449,-6.2447,0,-6.2248,-6.2245,-6.2243,-6.2053,-6.205,-6.2048,-6.2046,-6.184,-6.1837,-6.1834,0,0,0,0,0,0,0,0,0,0,0,0,0,-6.2669,-6.2667,-6.245,-6.2447,-6.2445,-6.2248,-6.2245,-6.2242,-6.2053,-6.205,-6.2047,-6.2044,-6.1841,-6.1837,-6.1834,0,0,0,0,0,0,0,0,0,0,0,0,0,-6.2532,-6.2666,-6.245,-6.2326,-6.2313,-6.2249,-6.2245,-6.2242,-6.2054,-6.205,-6.2046,-6.2043,-6.1843,-6.1838,-6.1833,-6.1875,0,0,-6.1818,-6.1816,0,0,0,0,0,0,0,0,-6.254,-6.2524,-6.2347,-6.2335,-6.232,-6.2172,-6.2247,-6.2119,-6.2055,-6.2152,-6.2045,-6.2041,-6.1953,-6.1939,-6.1909,-6.1865,-6.1856,-6.1818,-6.1815,-6.1813,-6.1811,0,0,0,0,0,0,0,-6.255,-6.2531,-6.237,-6.2345,-6.2328,-6.228,-6.2257,-6.2222,-6.2076,-6.2143,-6.2129,-6.2108,-6.1945,-6.1914,-6.1903,-6.1853,-6.1818,-6.1814,-6.1811,-6.1809,-6.1829,-6.1832,0,0,0,0,0,0,-6.2578,-6.2541,-6.2376,-6.2364,-6.2423,-6.2279,-6.2253,-6.2223,-6.2075,-6.2049,-6.2111,-6.21,-6.1925,-6.1909,-6.1895,-6.193,-6.1813,-6.1808,-6.1805,-6.1825,-6.1829,-6.1833,0,0,0,0,0,0,-6.2584,-6.2565,-6.2384,-6.2448,-6.2421,-6.2279,-6.2247,-6.2221,-6.2189,-6.2051,-6.2024,-6.2106,-6.1921,-6.1902,-6.188,-6.192,-6.1806,-6.1802,-6.1821,-6.1827,-6.1831,-6.2004,0,0,0,0,0,0,-6.2591,-6.2568,-6.2583,-6.245,-6.2419,-6.2373,-6.225,-6.2219,-6.2181,-6.2165,-6.2039,-6.2015,-6.1917,-6.1888,-6.1875,-6.1912,-6.1798,-6.1817,-6.1824,-6.183,-6.1994,-6.2014,-6.2032,0,0,0,0,0,-6.2599,-6.2641,-6.2585,-6.2566,-6.2434,-6.2376,-6.2358,-6.2244,-6.2186,-6.2198,-6.2109,-6.2019,-6.1919,-6.1888,-6.1871,-6.1907,-6.1814,-6.1822,-6.1829,-6.1985,-6.201,-6.2031,0,0,0,0,0,0,-6.2783,-6.2621,-6.2557,-6.2557,-6.2482,-6.2344,-6.2357,-6.2275,-6.2214,-6.2201,-6.2062,-6.2036,-6.2029,-6.1966,-6.1934,-6.1938,-6.1854,-6.1859,-6.1978,-6.2001,-6.2019,-6.2033,-6.1794,0,0,0,0,0,-6.2824,-6.279,-6.2651,-6.2664,-6.2629,-6.2501,-6.2471,-6.2389,-6.2305,-6.2273,-6.2181,-6.2104,-6.2054,-6.2025,-6.1972,-6.1985,-6.1953,-6.2001,-6.202,-6.2037,-6.2041,-6.2039,-6.2058,-6.1859,-6.1859,-6.1858,0,0,-6.2907,-6.2814,-6.2802,-6.2698,-6.263,-6.2597,-6.2475,-6.2446,-6.2419,-6.2268,-6.224,-6.2172,-6.2075,-6.207,-6.2064,-6.2018,-6.209,-6.2047,-6.2061,-6.2056,-6.2049,-6.2068,-6.2085,-6.1864,-6.1863,-6.1862,0,0,-6.3041,-6.297,-6.297,-6.2904,-6.2802,-6.2716,-6.2717,-6.2591,-6.2538,-6.2509,-6.2393,-6.2361,-6.228,-6.2214,-6.2171,-6.2279,-6.2192,-6.2266,-6.2364,-6.2364,-6.2379,-6.2392,-6.2427,-6.2441,-6.2272,-6.2273,-6.2273,0,-6.3157,-6.3103,-6.2981,-6.2958,-6.2915,-6.2776,-6.2775,-6.2717,-6.2604,-6.2576,-6.2527,-6.242,-6.2346,-6.2321,-6.2348,-6.2319,-6.2313,-6.2278,-6.2387,-6.2399,-6.2409,-6.244,-6.2454,-6.2282,-6.2281,-6.228,-6.2279,0,-6.3248,-6.3213,-6.3226,-6.3118,-6.3077,-6.3065,-6.2941,-6.2914,-6.2836,-6.2755,-6.2725,-6.2631,-6.2555,-6.2544,-6.2469,-6.2508,-6.2482,-6.2413,-6.2325,-6.2439,-6.2466,-6.2477,-6.2295,-6.2292,-6.2289,-6.2287,0,0,-6.349,-6.3315,-6.3321,-6.3269,-6.3146,-6.3116,-6.3098,-6.3022,-6.2999,-6.2927,-6.2905,-6.284,-6.2773,-6.2724,-6.264,-6.2641,-6.2727,-6.2569,-6.2565,-6.2598,-6.276,-6.281,-6.2826,-6.2671,-6.2673,-6.2674,-6.2766,0,-6.36,-6.3558,-6.3447,-6.3438,-6.3402,-6.327,-6.3253,-6.3175,-6.3099,-6.3057,-6.2973,-6.2926,-6.2844,-6.2813,-6.2808,-6.2718,-6.2757,-6.271,-6.2647,-6.2646,-6.2671,-6.284,-6.2894,-6.2985,-6.2776,-6.2778,-6.2779,0,-6.3722,-6.3655,-6.3643,-6.3518,-6.3499,-6.3486,-6.3406,-6.3368,-6.3277,-6.3221,-6.3166,-6.3073,-6.3044,-6.2967,-6.2924,-6.2895,-6.2863,-6.2815,-6.2816,-6.2802,-6.2717,-6.2827,-6.3012,-6.3024,-6.2795,-6.2794,-6.2793,0,-6.3894,-6.3802,-6.3781,-6.3741,-6.3597,-6.359,-6.353,-6.3435,-6.3396,-6.3327,-6.33,-6.323,-6.319,-6.3138,-6.3027,-6.2982,-6.2996,-6.291,-6.2946,-6.2949,-6.2952,-6.2953,-6.313,-6.294,-6.294,-6.294,-6.2939,0,-6.4026,-6.4022,-6.3856,-6.3843,-6.3834,-6.3707,-6.3702,-6.3629,-6.3546,-6.3515,-6.3399,-6.3372,-6.323,-6.3187,-6.3102,-6.3077,-6.3062,-6.3014,-6.299,-6.3022,-6.3027,-6.2996,-6.2985,-6.2943,-6.2942,-6.2942,-6.2941,0,-6.4215,-6.4104,-6.4072,-6.3938,-6.3904,-6.3903,-6.3787,-6.3769,-6.3686,-6.3649,-6.3633,-6.3502,-6.3445,-6.3331,-6.3244,-6.3186,-6.3179,-6.3141,-6.321,-6.3194,-6.3235,-6.3231,-6.3395,-6.3408,-6.3216,-6.3218,-6.3219,0,-6.4304,-6.4297,-6.4162,-6.4133,-6.4077,-6.4032,-6.3991,-6.3866,-6.3828,-6.3722,-6.3716,-6.365,-6.359,-6.3505,-6.3402,-6.3334,-6.329,-6.3352,-6.3279,-6.3309,-6.3285,-6.3285,-6.3281,-6.3367,-6.337,-6.3372,-6.3374,0,-6.4472,-6.4417,-6.4362,-6.4287,-6.4241,-6.4177,-6.4106,-6.4089,-6.3947,-6.391,-6.385,-6.3804,-6.3713,-6.3647,-6.3564,-6.35,-6.3413,-6.3399,-6.3402,-6.3432,-6.347,-6.3445,-6.3249,-6.3394,-6.3392,-6.3391,-6.339,-6.3389,-6.461,-6.4596,-6.4498,-6.444,-6.4374,-6.431,-6.4285,-6.4198,-6.4146,-6.4061,-6.3991,-6.3936,-6.3842,-6.372,-6.3663,-6.3617,-6.3575,-6.3582,-6.3583,-6.3586,-6.3597,-6.3482,-6.3603,-6.3602,-6.3601,-6.36,-6.36,0,-6.4767,-6.4698,-6.4646,-6.4549,-6.4504,-6.4426,-6.4343,-6.4309,-6.4262,-6.4182,-6.4125,-6.4054,-6.399,-6.3882,-6.3808,-6.3792,-6.375,-6.3777,-6.3774,-6.376,-6.3641,-6.3643,-6.3812,-6.3812,-6.3812,-6.3812,-6.3812,-6.3812,-6.4844,-6.4816,-6.4749,-6.4686,-6.4616,-6.456,-6.4519,-6.4459,-6.4394,-6.432,-6.4265,-6.4195,-6.4103,-6.4021,-6.3958,-6.3928,-6.3904,-6.3943,-6.39,-6.379,-6.377,-6.375,-6.3751,-6.394,-6.3941,-6.4022,-6.4023,-6.4024]},{"header":{"parameterUnit":"m.s-1","parameterCategory":1,"la1":30.2991,"la2":30.254,"lo1":-89.0895,"lo2":-89.0444,"dy":0.0017,"dx":0.0017,"nx":28,"ny":28,"refTime":"2024-03-14T09:00:00:Z","depth":0,"parameterNumber":3,"parameterNumberName":"V-component_of_WINDS"},"data":[0,0,0,0,0,0,0,0,0,0,0,0,0,0,0,0,0,0,0,0,0,0,0,0,0,0,0,0,0,0,0,0,0,0,0,0,0,0,0,0,0,0,0,0,0,0,0,0,0,0,0,0,0,0,0,0,0,0,2.7983,2.7983,0,2.7981,2.7981,2.7981,2.8063,2.8065,2.8067,2.8069,2.8054,2.8051,2.8049,0,0,0,0,0,0,0,0,0,0,0,0,0,2.8049,2.8047,2.7983,2.7983,2.7983,2.7981,2.7981,2.7981,2.8062,2.8065,2.8068,2.807,2.8054,2.8051,2.8048,0,0,0,0,0,0,0,0,0,0,0,0,0,2.803,2.8047,2.7983,2.8024,2.8028,2.7981,2.7981,2.7981,2.8062,2.8065,2.8068,2.8072,2.8055,2.8052,2.8048,2.7958,0,0,2.8037,2.8035,0,0,0,0,0,0,0,0,2.8031,2.8028,2.8018,2.8021,2.8025,2.8026,2.7998,2.7972,2.8061,2.8048,2.8069,2.8073,2.8041,2.8038,2.803,2.7957,2.7957,2.8036,2.8034,2.8032,2.8031,0,0,0,0,0,0,0,2.8032,2.8028,2.7982,2.8018,2.8022,2.8039,2.804,2.7994,2.8025,2.805,2.8056,2.8055,2.8043,2.8034,2.803,2.7956,2.8036,2.8033,2.8031,2.8029,2.781,2.7807,0,0,0,0,0,0,2.803,2.8029,2.7982,2.7982,2.8037,2.8035,2.8036,2.8022,2.8026,2.803,2.8052,2.8059,2.8038,2.8035,2.803,2.7925,2.8032,2.8029,2.8027,2.7814,2.7809,2.7805,0,0,0,0,0,0,2.8031,2.8025,2.7982,2.8007,2.8003,2.8031,2.8014,2.802,2.8011,2.8028,2.8033,2.8037,2.8041,2.8035,2.7977,2.7926,2.8027,2.8024,2.7818,2.7812,2.7807,2.7714,0,0,0,0,0,0,2.8032,2.8025,2.7993,2.8006,2.8002,2.7931,2.8011,2.8018,2.8006,2.8014,2.8015,2.8019,2.8043,2.7982,2.7973,2.7923,2.8021,2.7822,2.7815,2.7809,2.7722,2.7707,2.7693,0,0,0,0,0,2.8034,2.7964,2.7991,2.7985,2.7963,2.7928,2.7925,2.7958,2.8001,2.7968,2.798,2.8019,2.7934,2.7975,2.7966,2.7913,2.7826,2.7817,2.781,2.7728,2.771,2.7694,0,0,0,0,0,0,2.7939,2.7966,2.7996,2.7929,2.7926,2.7942,2.7901,2.7937,2.7919,2.7927,2.7965,2.7965,2.7899,2.7901,2.7946,2.7827,2.7887,2.7876,2.7828,2.781,2.7796,2.7796,2.8018,0,0,0,0,0,2.7911,2.7884,2.7908,2.7846,2.7844,2.7873,2.7859,2.7885,2.7882,2.788,2.7887,2.7879,2.7851,2.7831,2.7806,2.7724,2.7724,2.7683,2.7669,2.7657,2.7647,2.7603,2.7585,2.7779,2.7779,2.7779,0,0,2.7851,2.7863,2.7842,2.7827,2.7828,2.7796,2.7871,2.7833,2.7809,2.7873,2.7819,2.7824,2.7818,2.7747,2.7716,2.7746,2.7594,2.7647,2.7637,2.7633,2.7593,2.7575,2.7558,2.7774,2.7775,2.7775,0,0,2.7725,2.7732,2.7682,2.7683,2.7686,2.7706,2.7694,2.7705,2.7712,2.766,2.7708,2.7678,2.7628,2.7622,2.7613,2.7489,2.7523,2.7479,2.7402,2.7359,2.7344,2.7331,2.7285,2.7268,2.7469,2.7469,2.7469,0,2.7649,2.7607,2.765,2.7611,2.7602,2.7664,2.7611,2.7609,2.7601,2.7592,2.7627,2.7568,2.7568,2.7497,2.7467,2.7458,2.7443,2.7477,2.7344,2.7331,2.7319,2.7275,2.7258,2.7463,2.7464,2.7465,2.7465,0,2.7512,2.7482,2.7441,2.7437,2.7424,2.7378,2.7411,2.7392,2.742,2.7436,2.7381,2.7385,2.7362,2.7347,2.7372,2.728,2.7298,2.7338,2.7398,2.7294,2.7254,2.7238,2.7456,2.7458,2.7459,2.7461,0,0,2.7323,2.7348,2.7331,2.7331,2.734,2.7315,2.7272,2.7254,2.7236,2.723,2.7192,2.7151,2.7189,2.7178,2.7203,2.7166,2.7067,2.7211,2.7211,2.7182,2.6963,2.6932,2.6912,2.7092,2.7089,2.7086,2.6963,0,2.7201,2.7132,2.717,2.7094,2.7066,2.7126,2.7088,2.7087,2.7101,2.7077,2.7091,2.7061,2.7114,2.7108,2.7075,2.7086,2.7023,2.7096,2.7053,2.7051,2.7051,2.6892,2.6858,2.6741,2.6948,2.6946,2.6944,0,2.7048,2.704,2.6962,2.6978,2.6968,2.6933,2.6921,2.6898,2.6898,2.6911,2.6901,2.6936,2.6892,2.6954,2.6892,2.6941,2.6926,2.6929,2.6926,2.692,2.6989,2.688,2.6705,2.6687,2.692,2.6922,2.6923,0,2.6916,2.6885,2.6835,2.6833,2.6851,2.6825,2.683,2.6835,2.6822,2.681,2.6802,2.6784,2.6772,2.6756,2.6784,2.6827,2.6717,2.6782,2.6724,2.6723,2.6695,2.6696,2.6513,2.669,2.669,2.669,2.6691,0,2.6774,2.6723,2.6777,2.6745,2.669,2.6735,2.6678,2.6689,2.6693,2.6663,2.6713,2.6682,2.6723,2.6695,2.6717,2.6662,2.6656,2.6663,2.6669,2.6657,2.6656,2.6646,2.6654,2.6686,2.6687,2.6688,2.6688,0,2.6616,2.665,2.6599,2.6622,2.6626,2.6584,2.6602,2.6573,2.6593,2.6554,2.6547,2.6575,2.6547,2.6575,2.6545,2.656,2.6486,2.6504,2.6486,2.6491,2.643,2.6435,2.6232,2.6207,2.6402,2.64,2.6398,0,2.6522,2.6485,2.6505,2.6491,2.6495,2.647,2.6459,2.6502,2.6487,2.6487,2.6457,2.6433,2.6416,2.6367,2.6383,2.6361,2.6378,2.6309,2.6374,2.6364,2.6374,2.6375,2.6371,2.6294,2.6291,2.629,2.6288,0,2.635,2.637,2.6354,2.6344,2.6331,2.6324,2.6321,2.6305,2.6349,2.633,2.6304,2.6291,2.6265,2.624,2.6224,2.6226,2.6262,2.6268,2.6253,2.6239,2.623,2.6233,2.6448,2.6272,2.6273,2.6274,2.6275,2.6276,2.622,2.6191,2.6201,2.6182,2.6185,2.6182,2.6156,2.6174,2.6154,2.6139,2.6164,2.6131,2.6133,2.6116,2.6114,2.6086,2.6115,2.6093,2.6087,2.6081,2.6071,2.6238,2.6084,2.6084,2.6085,2.6085,2.6085,0,2.605,2.6061,2.6043,2.604,2.6024,2.6067,2.6066,2.6048,2.602,2.6021,2.6005,2.5974,2.5951,2.5967,2.5947,2.5921,2.5938,2.5914,2.5915,2.5914,2.6048,2.6062,2.5901,2.5901,2.5901,2.5901,2.5901,2.5901,2.596,2.5912,2.5933,2.5887,2.5898,2.5869,2.5864,2.586,2.5862,2.5827,2.5809,2.5822,2.5828,2.5809,2.5789,2.5794,2.5783,2.5753,2.5763,2.5887,2.5905,2.5922,2.5936,2.5751,2.5751,2.5632,2.5631,2.563]}]]